SES-11 (ECHOSTAR 105)

Last updated on Tue Oct 08 2024 00:02:40 GMT+0000 (Coordinated Universal Time)

1 42967U 17063A 24281.39216479 -.00000078 00000+0 00000+0 0 9997 2 42967 0.0275 289.8239 0002236 263.8034 219.1566 1.00272231 25526
UTC large
Height (km)
Speed (km/s)
/
Latitude / Longitude
Inclination (degrees)
Orbital Period (minutes)
Azimuth
Elevation
Range (km)
Doppler Factor

Next 0 passes for location: London (51.5072 / 0.1276)

Sorry there are no passes over London.